DW8248 Weather Reports


Display with metric or nautical units.
time (UTC)temp
F
wind
direction
speed
MPH
gust
MPH
rain 1hr
in
rain 24hr
in
rain mn
in
humidity
%
barometer
mb
20180220034800 74 130 7.0 15.0 0.00 0.00 0.00 39 1024.7
20180220033742 74 136 7.0 14.0 0.00 0.00 0.00 40 1024.6
20180220032745 74 126 8.0 14.0 0.00 0.00 0.00 40 1024.7
20180220031719 74 128 8.0 13.0 0.00 0.00 0.00 37 1024.7
20180220030729 74 107 7.0 13.0 0.00 0.00 0.00 33 1024.6
20180220025751 74 84 7.0 12.0 0.00 0.00 0.00 31 1024.6
20180220024811 74 134 7.0 13.0 0.00 0.00 0.00 30 1024.7
20180220023737 74 105 7.0 13.0 0.00 0.00 0.00 32 1024.6
20180220022722 74 96 7.0 12.0 0.00 0.00 0.00 33 1024.6
20180220021730 74 83 7.0 16.0 0.00 0.00 0.00 32 1024.6
20180220020736 74 94 8.0 16.0 0.00 0.00 0.00 32 1024.5
20180220015713 74 119 8.0 13.0 0.00 0.00 0.00 31 1024.4
20180220014735 74 101 7.0 12.0 0.00 0.00 0.00 30 1024.4
20180220013709 74 145 6.0 12.0 0.00 0.00 0.00 29 1024.4
20180220012725 74 111 6.0 11.0 0.00 0.00 0.00 29 1024.3
20180220011720 74 111 7.0 12.0 0.00 0.00 0.00 29 1024.3
20180220010724 74 101 6.0 12.0 0.00 0.00 0.00 27 1024.2
20180220005729 74 105 6.0 12.0 0.00 0.00 0.00 25 1024.2
20180220004725 74 85 5.0 11.0 0.00 0.00 0.00 25 1024.0
20180220003730 74 112 4.0 9.0 0.00 0.00 0.00 23 1024.0
20180220002748 74 119 5.0 9.0 0.00 0.00 0.00 20 1023.9
20180220001721 74 124 5.0 8.0 0.00 0.00 0.00 17 1023.9
20180220000649 74 121 3.0 8.0 0.00 0.00 0.00 13 1023.8
20180219235629 74 97 3.0 8.0 0.00 0.00 0.00 13 1023.8
20180219234553 74 123 3.0 8.0 0.00 0.00 0.00 14 1023.8
20180219233542 74 90 4.0 11.0 0.00 0.00 0.00 16 1023.9
20180219232523 73 100 5.0 13.0 0.00 0.00 0.00 17 1023.8
20180219231545 74 78 8.0 13.0 0.00 0.00 0.00 19 1023.9
20180219230511 74 140 5.0 11.0 0.00 0.00 0.00 24 1023.8
20180219225524 74 115 4.0 11.0 0.00 0.00 0.00 25 1023.8
20180219224538 75 105 4.0 9.0 0.00 0.00 0.00 28 1023.9
20180219223524 74 101 6.0 14.0 0.00 0.00 0.00 34 1023.8
20180219222529 75 95 5.0 14.0 0.00 0.00 0.00 27 1023.9
20180219221526 75 98 3.0 10.0 0.00 0.00 0.00 21 1023.7
20180219220455 75 85 5.0 10.0 0.00 0.00 0.00 23 1023.6
20180219215507 75 111 4.0 9.0 0.00 0.00 0.00 23 1023.5
20180219214449 75 68 3.0 8.0 0.00 0.00 0.00 18 1023.4
20180219213442 74 115 3.0 9.0 0.00 0.00 0.00 19 1023.4
20180219212457 74 132 4.0 10.0 0.00 0.00 0.00 21 1023.4
20180219211518 74 112 5.0 13.0 0.00 0.00 0.00 23 1023.4
20180219210514 75 120 7.0 13.0 0.00 0.00 0.00 29 1023.4
20180219205527 76 94 5.0 11.0 0.00 0.00 0.00 32 1023.4
20180219204514 76 109 5.0 10.0 0.00 0.00 0.00 31 1023.4
20180219203452 76 114 5.0 10.0 0.00 0.00 0.00 37 1023.5
20180219202427 76 64 4.0 8.0 0.00 0.00 0.00 35 1023.4
20180219201422 75 90 3.0 9.0 0.00 0.00 0.00 28 1023.4
20180219200431 74 53 3.0 9.0 0.00 0.00 0.00 21 1023.5
20180219195402 73 50 4.0 11.0 0.00 0.00 0.00 22 1023.5
20180219194423 74 78 6.0 14.0 0.00 0.00 0.00 28 1023.5
20180219193412 75 103 8.0 14.0 0.00 0.00 0.00 42 1023.6
20180219192417 76 127 5.0 9.0 0.00 0.00 0.00 42 1023.7
20180219191439 76 109 5.0 10.0 0.00 0.00 0.00 50 1023.9
20180219190453 77 77 5.0 11.0 0.00 0.00 0.00 51 1024.0
20180219185514 77 96 5.0 11.0 0.00 0.00 0.00 54 1024.1
20180219184528 77 88 6.0 11.0 0.00 0.00 0.00 54 1024.2
20180219183535 77 96 6.0 12.0 0.00 0.00 0.00 55 1024.3
20180219182511 77 97 6.0 12.0 0.00 0.00 0.00 53 1024.4
20180219181442 76 107 6.0 10.0 0.00 0.00 0.00 55 1024.5
20180219180408 76 126 7.0 13.0 0.00 0.00 0.00 58 1024.7
20180219175354 76 112 8.0 15.0 0.00 0.00 0.00 58 1024.8
20180219174336 76 96 8.0 15.0 0.00 0.00 0.00 59 1025.0
20180219173350 76 122 9.0 14.0 0.00 0.00 0.00 58 1025.1
20180219172339 76 141 8.0 14.0 0.00 0.00 0.00 60 1025.2
20180219171400 76 134 8.0 13.0 0.00 0.00 0.00 59 1025.4
20180219170330 76 114 8.0 13.0 0.00 0.00 0.00 60 1025.4
20180219165318 76 101 8.0 13.0 0.00 0.00 0.00 61 1025.6
20180219164308 76 88 8.0 13.0 0.00 0.00 0.00 61 1025.6
20180219163304 76 100 8.0 13.0 0.00 0.00 0.00 61 1025.8
20180219162317 76 86 8.0 13.0 0.00 0.00 0.00 61 1025.8
20180219161248 76 98 7.0 12.0 0.00 0.00 0.00 62 1025.9
20180219160218 77 88 6.0 12.0 0.00 0.00 0.00 62 1025.9
20180219155229 76 113 6.0 12.0 0.00 0.00 0.00 63 1025.9
20180219154153 76 131 6.0 12.0 0.00 0.00 0.00 62 1025.8
20180219153213 76 119 6.0 12.0 0.00 0.00 0.00 61 1025.9
20180219152146 76 115 7.0 14.0 0.00 0.00 0.00 61 1025.8
20180219151116 76 109 7.0 14.0 0.00 0.00 0.00 61 1025.7
20180219150045 76 118 6.0 11.0 0.00 0.00 0.00 61 1025.6
20180219145021 76 96 6.0 12.0 0.00 0.00 0.00 61 1025.5
20180219144014 76 113 7.0 12.0 0.00 0.00 0.00 60 1025.4
20180219142948 76 124 6.0 12.0 0.00 0.00 0.00 59 1025.3
20180219141929 75 113 7.0 12.0 0.00 0.00 0.00 60 1025.2
20180219140859 75 121 5.0 11.0 0.00 0.00 0.00 59 1025.0
20180219135822 75 117 5.0 11.0 0.00 0.00 0.00 58 1024.9
20180219134839 75 140 6.0 11.0 0.00 0.00 0.00 58 1024.9
20180219133819 75 130 6.0 10.0 0.00 0.00 0.00 58 1024.9
20180219132810 75 118 6.0 11.0 0.00 0.00 0.00 54 1024.7
20180219131801 74 126 6.0 11.0 0.00 0.00 0.00 51 1024.7
20180219130812 74 108 5.0 13.0 0.00 0.00 0.00 50 1024.6
20180219125817 74 117 6.0 13.0 0.00 0.00 0.00 49 1024.5
20180219124836 74 109 6.0 11.0 0.00 0.00 0.00 47 1024.5
20180219123838 73 122 6.0 12.0 0.00 0.00 0.00 46 1024.4
20180219122812 73 112 6.0 12.0 0.00 0.00 0.00 38 1024.3
20180219121821 73 132 5.0 10.0 0.00 0.00 0.00 32 1024.2
20180219120840 73 118 5.0 10.0 0.00 0.00 0.00 31 1024.1
20180219115813 73 126 4.0 9.0 0.00 0.00 0.00 31 1024.0
20180219114753 72 123 4.0 9.0 0.00 0.00 0.00 33 1023.9
20180219113814 73 115 3.0 8.0 0.00 0.00 0.00 34 1023.8
20180219112818 72 96 3.0 8.0 0.00 0.00 0.00 37 1023.7
20180219111748 72 127 4.0 9.0 0.00 0.00 0.00 39 1023.5
20180219110744 72 124 4.0 9.0 0.00 0.00 0.00 40 1023.4
20180219105752 73 99 5.0 8.0 0.00 0.00 0.00 42 1023.3
20180219104802 73 111 4.0 10.0 0.00 0.00 0.00 45 1023.2
20180219103726 72 124 4.0 10.0 0.00 0.00 0.00 49 1023.2
20180219102726 72 106 5.0 9.0 0.00 0.00 0.00 48 1023.2
20180219101723 73 121 4.0 9.0 0.00 0.00 0.00 47 1023.0
20180219100722 73 106 4.0 9.0 0.00 0.00 0.00 49 1023.0
20180219095648 73 103 4.0 9.0 0.00 0.00 0.00 52 1022.9
20180219094642 73 136 4.0 9.0 0.00 0.00 0.00 53 1022.8
20180219093645 73 140 4.0 10.0 0.00 0.00 0.00 54 1022.9
20180219091628 73 126 5.0 10.0 0.00 0.00 0.00 56 1022.9
20180219090611 73 156 5.0 10.0 0.00 0.00 0.00 58 1022.7
20180219085620 73 133 5.0 11.0 0.00 0.00 0.00 56 1022.7
20180219084549 73 139 5.0 11.0 0.00 0.00 0.00 55 1022.7
20180219083609 73 133 5.0 10.0 0.00 0.00 0.00 54 1022.6
20180219082538 73 130 5.0 9.0 0.00 0.00 0.00 51 1022.6
20180219081526 73 112 5.0 10.0 0.00 0.00 0.00 50 1022.6
20180219080522 73 136 5.0 10.0 0.00 0.00 0.00 48 1022.6
20180219075544 73 116 5.0 10.0 0.00 0.00 0.00 48 1022.6
20180219074545 73 115 5.0 10.0 0.00 0.00 0.00 46 1022.6
20180219073549 73 117 5.0 9.0 0.00 0.00 0.00 45 1022.7
20180219072524 73 128 4.0 9.0 0.00 0.00 0.00 38 1022.7
20180219071536 72 109 3.0 8.0 0.00 0.00 0.00 34 1022.8
20180219070551 72 124 4.0 7.0 0.00 0.00 0.00 33 1022.8
20180219065516 72 111 3.0 9.0 0.00 0.00 0.00 33 1022.8
20180219064452 72 90 2.0 7.0 0.00 0.00 0.00 32 1022.9
20180219063441 72 105 3.0 6.0 0.00 0.00 0.00 33 1023.0
20180219062413 72 104 3.0 8.0 0.00 0.00 0.00 34 1023.0
20180219061359 73 116 3.0 8.0 0.00 0.00 0.00 33 1023.0
20180219060333 73 110 3.0 8.0 0.00 0.00 0.00 35 1023.0
20180219055355 73 126 4.0 9.0 0.00 0.00 0.00 36 1023.0
20180219054403 73 118 4.0 9.0 0.00 0.00 0.00 36 1023.1
20180219053423 73 128 4.0 9.0 0.00 0.00 0.00 37 1023.2
20180219052444 73 128 4.0 9.0 0.00 0.00 0.00 39 1023.3
20180219051419 73 101 3.0 7.0 0.00 0.00 0.00 38 1023.3
20180219050341 73 101 3.0 8.0 0.00 0.00 0.00 40 1023.3
20180219045312 73 121 4.0 10.0 0.00 0.00 0.00 41 1023.4
20180219044245 73 118 4.0 10.0 0.00 0.00 0.00 39 1023.3
20180219043213 73 144 4.0 9.0 0.00 0.00 0.00 35 1023.4
20180219042232 73 140 5.0 9.0 0.00 0.00 0.00 31 1023.5
20180219041206 73 135 4.0 8.0 0.00 0.00 0.00 28 1023.4
20180219040158 73 130 4.0 9.0 0.00 0.00 0.00 25 1023.4